• In Uzbekistan
  • List of Countries
  • For 7 days
  • Water Temperature
  • Satellite Maps
  • Weather Map
  • Weather Widgets
  • user-avatar
    Login

    Hourly Weather Zadworze

    Today, 21 September, Friday

    Time Temperature Precipitation Wind Pressure Humidity
    00:00 +15°C° 0 mm 1 mps 717 mmHg 78%
    01:00 +15°C° 0 mm 1 mps 717 mmHg 79%
    02:00 +14°C° 0 mm 1 mps 717 mmHg 80%
    03:00 +14°C° 0 mm 1 mps 717 mmHg 81%
    04:00 +14°C° 0 mm 1 mps 717 mmHg 81%
    05:00 +14°C° 0 mm 1 mps 716 mmHg 82%
    06:00 +15°C° 0 mm 1 mps 716 mmHg 79%
    07:00 +16°C° 0 mm 1 mps 717 mmHg 77%
    08:00 +18°C° 0 mm 1 mps 717 mmHg 71%
    09:00 +20°C° 0 mm 1 mps 717 mmHg 63%
    10:00 +21°C° 0 mm 2 mps 717 mmHg 55%
    11:00 +24°C° 0 mm 2 mps 717 mmHg 47%
    12:00 +24°C° 0 mm 2 mps 717 mmHg 45%
    13:00 +25°C° 0 mm 3 mps 716 mmHg 44%
    14:00 +26°C° 0 mm 3 mps 716 mmHg 42%
    15:00 +25°C° 0 mm 3 mps 716 mmHg 47%
    16:00 +24°C° 0 mm 2 mps 715 mmHg 51%
    17:00 +23°C° 0 mm 2 mps 715 mmHg 56%
    18:00 +21°C° 0 mm 2 mps 715 mmHg 60%
    19:00 +19°C° 0 mm 2 mps 714 mmHg 65%
    20:00 +17°C° 0 mm 2 mps 714 mmHg 70%
    21:00 +16°C° 0 mm 2 mps 714 mmHg 70%
    22:00 +16°C° 0 mm 2 mps 714 mmHg 70%
    23:00 +16°C° 0 mm 3 mps 714 mmHg 70%

    Tomorrow, 22 September, Saturday

    Time Temperature Precipitation Wind Pressure Humidity
    00:00 +16°C° 0 mm 3 mps 714 mmHg 68%
    01:00 +16°C° 0 mm 3 mps 714 mmHg 66%
    02:00 +16°C° 0 mm 3 mps 714 mmHg 64%
    03:00 +15°C° 0 mm 4 mps 714 mmHg 62%
    04:00 +15°C° 0 mm 4 mps 714 mmHg 60%
    05:00 +15°C° 0 mm 4 mps 714 mmHg 57%
    06:00 +15°C° 0.3 mm 4 mps 714 mmHg 64%
    07:00 +15°C° 0.3 mm 4 mps 715 mmHg 72%
    08:00 +14°C° 0.3 mm 3 mps 715 mmHg 79%
    09:00 +13°C° 0.4 mm 3 mps 716 mmHg 82%
    10:00 +12°C° 0.4 mm 3 mps 716 mmHg 84%
    11:00 +13°C° 0.4 mm 2 mps 717 mmHg 87%
    12:00 +12°C° 1.2 mm 2 mps 717 mmHg 88%
    13:00 +10°C° 1.2 mm 2 mps 717 mmHg 89%
    14:00 +10°C° 1.2 mm 2 mps 717 mmHg 90%
    15:00 +11°C° 0.9 mm 1 mps 717 mmHg 90%
    16:00 +10°C° 0.9 mm 1 mps 717 mmHg 90%
    17:00 +10°C° 0.9 mm 1 mps 717 mmHg 91%
    18:00 +10°C° 0 mm 1 mps 717 mmHg 91%
    19:00 +9°C° 0 mm 1 mps 717 mmHg 91%
    20:00 +8°C° 0 mm 1 mps 717 mmHg 91%
    21:00 +8°C° 0 mm 1 mps 717 mmHg 89%
    22:00 +8°C° 0 mm 1 mps 717 mmHg 87%
    23:00 +7°C° 0 mm 2 mps 717 mmHg 85%

    Day after tomorrow, 23 September, Sunday

    Time Temperature Precipitation Wind Pressure Humidity
    00:00 +7°C° 0 mm 2 mps 717 mmHg 85%
    01:00 +7°C° 0 mm 2 mps 717 mmHg 85%
    02:00 +8°C° 0 mm 2 mps 717 mmHg 84%
    03:00 +7°C° 0 mm 2 mps 717 mmHg 86%
    04:00 +7°C° 0 mm 2 mps 717 mmHg 87%
    05:00 +6°C° 0 mm 2 mps 717 mmHg 89%
    06:00 +7°C° 0 mm 2 mps 717 mmHg 87%
    07:00 +8°C° 0 mm 2 mps 717 mmHg 85%
    08:00 +8°C° 0 mm 2 mps 717 mmHg 83%
    09:00 +10°C° 0 mm 3 mps 718 mmHg 76%
    10:00 +12°C° 0 mm 3 mps 718 mmHg 69%
    11:00 +13°C° 0 mm 4 mps 718 mmHg 62%
    12:00 +14°C° 0.1 mm 4 mps 718 mmHg 61%
    13:00 +14°C° 0.1 mm 4 mps 717 mmHg 60%
    14:00 +15°C° 0.1 mm 4 mps 717 mmHg 59%
    15:00 +14°C° 0.1 mm 3 mps 717 mmHg 62%
    16:00 +13°C° 0.1 mm 3 mps 717 mmHg 66%
    17:00 +14°C° 0.1 mm 2 mps 716 mmHg 69%
    18:00 +13°C° 0 mm 2 mps 716 mmHg 71%
    19:00 +12°C° 0 mm 2 mps 716 mmHg 74%
    20:00 +12°C° 0 mm 2 mps 716 mmHg 76%
    21:00 +10°C° 0 mm 3 mps 715 mmHg 79%
    22:00 +10°C° 0 mm 4 mps 714 mmHg 81%
    23:00 +10°C° 0 mm 4 mps 714 mmHg 84%

    24 September, Monday

    Time Temperature Precipitation Wind Pressure Humidity
    00:00 +10°C° 0 mm 5 mps 712 mmHg 79%
    01:00 +10°C° 0 mm 6 mps 711 mmHg 74%
    02:00 +10°C° 0 mm 7 mps 710 mmHg 70%
    03:00 +11°C° 0.3 mm 8 mps 708 mmHg 68%
    04:00 +11°C° 0.3 mm 9 mps 707 mmHg 67%
    05:00 +12°C° 0.3 mm 9 mps 706 mmHg 66%
    06:00 +11°C° 2.1 mm 9 mps 705 mmHg 73%
    07:00 +11°C° 2.1 mm 9 mps 704 mmHg 80%
    08:00 +10°C° 2.1 mm 9 mps 703 mmHg 87%
    09:00 +8°C° 1 mm 9 mps 705 mmHg 85%
    10:00 +7°C° 1 mm 10 mps 706 mmHg 83%
    11:00 +7°C° 1 mm 10 mps 707 mmHg 81%
    12:00 +7°C° 0.1 mm 9 mps 709 mmHg 80%
    13:00 +7°C° 0.1 mm 8 mps 711 mmHg 78%
    14:00 +8°C° 0.1 mm 7 mps 712 mmHg 77%
    15:00 +8°C° 0.2 mm 7 mps 713 mmHg 76%
    16:00 +8°C° 0.2 mm 6 mps 713 mmHg 75%
    17:00 +8°C° 0.2 mm 6 mps 714 mmHg 73%
    18:00 +7°C° 0.1 mm 5 mps 715 mmHg 75%
    19:00 +6°C° 0.1 mm 5 mps 716 mmHg 76%
    20:00 +5°C° 0.1 mm 5 mps 716 mmHg 78%
    21:00 +5°C° 0 mm 5 mps 717 mmHg 77%
    22:00 +3°C° 0 mm 5 mps 717 mmHg 77%
    23:00 +3°C° 0 mm 5 mps 717 mmHg 77%

    25 September, Tuesday

    Time Temperature Precipitation Wind Pressure Humidity
    00:00 +2°C° 0 mm 5 mps 718 mmHg 78%
    01:00 +3°C° 0 mm 4 mps 718 mmHg 80%
    02:00 +3°C° 0 mm 4 mps 718 mmHg 81%
    03:00 +3°C° 0 mm 4 mps 719 mmHg 82%
    04:00 +1°C° 0 mm 4 mps 719 mmHg 83%
    05:00 +1°C° 0 mm 4 mps 720 mmHg 85%
    06:00 +3°C° 0 mm 4 mps 720 mmHg 81%
    07:00 +2°C° 0 mm 5 mps 721 mmHg 78%
    08:00 +3°C° 0 mm 5 mps 722 mmHg 74%
    09:00 +4°C° 0 mm 6 mps 722 mmHg 69%
    10:00 +5°C° 0 mm 6 mps 723 mmHg 63%
    11:00 +7°C° 0 mm 6 mps 723 mmHg 58%
    12:00 +7°C° 0.2 mm 6 mps 723 mmHg 56%
    13:00 +8°C° 0.2 mm 6 mps 723 mmHg 55%
    14:00 +8°C° 0.2 mm 6 mps 723 mmHg 53%
    15:00 +8°C° 0.1 mm 6 mps 724 mmHg 55%
    16:00 +7°C° 0.1 mm 6 mps 724 mmHg 56%
    17:00 +7°C° 0.1 mm 5 mps 724 mmHg 58%
    18:00 +5°C° 0 mm 4 mps 724 mmHg 64%
    19:00 +4°C° 0 mm 3 mps 725 mmHg 70%
    20:00 +3°C° 0 mm 2 mps 725 mmHg 77%
    21:00 +3°C° 0 mm 2 mps 725 mmHg 76%
    22:00 +3°C° 0 mm 2 mps 726 mmHg 76%
    23:00 +2°C° 0 mm 2 mps 726 mmHg 76%

    26 September, Wednesday

    Time Temperature Precipitation Wind Pressure Humidity
    00:00 +2°C° 0 mm 2 mps 726 mmHg 76%
    01:00 +2°C° 0 mm 2 mps 726 mmHg 77%
    02:00 +2°C° 0 mm 2 mps 726 mmHg 77%
    03:00 +2°C° 0 mm 2 mps 726 mmHg 76%
    04:00 +2°C° 0 mm 2 mps 725 mmHg 75%
    05:00 +2°C° 0 mm 3 mps 725 mmHg 74%
    06:00 +2°C° 0 mm 3 mps 725 mmHg 72%
    07:00 +3°C° 0 mm 3 mps 725 mmHg 70%
    08:00 +4°C° 0 mm 3 mps 725 mmHg 68%
    09:00 +5°C° 0 mm 4 mps 725 mmHg 65%
    10:00 +7°C° 0 mm 4 mps 725 mmHg 62%
    11:00 +8°C° 0 mm 5 mps 725 mmHg 59%
    12:00 +9°C° 0 mm 5 mps 725 mmHg 55%
    13:00 +10°C° 0 mm 5 mps 725 mmHg 51%
    14:00 +12°C° 0 mm 5 mps 724 mmHg 47%
    15:00 +11°C° 0 mm 4 mps 724 mmHg 49%
    16:00 +11°C° 0 mm 3 mps 723 mmHg 52%
    17:00 +11°C° 0 mm 3 mps 723 mmHg 54%
    18:00 +10°C° 0 mm 2 mps 723 mmHg 57%
    19:00 +8°C° 0 mm 2 mps 723 mmHg 60%
    20:00 +7°C° 0 mm 2 mps 723 mmHg 63%
    21:00 +6°C° 0 mm 2 mps 723 mmHg 64%
    22:00 +6°C° 0 mm 2 mps 723 mmHg 66%
    23:00 +5°C° 0 mm 2 mps 723 mmHg 67%
    Show more